Volver al catálogo

YAOGAN-31 C

ActivoMilitarLEO
NORAD 43277·PAYLOAD·🇨🇳 China

Lanzado Apr 10, 2018 desde Jiuquan Satellite Launch Center

Loading…

Próximos Pases (próximas 24 horas)

TLE

ActualizadoSource: Space-Track

Época: Sep 14, 2026, 15:04 UTC

1 43277U 18034C   26257.62816866  .00000013  00000-0  13759-3 0  9996
2 43277  63.3936 220.5097 0283368   7.3864 353.1204 13.45450101414278

Sigue YAOGAN-31 C en tiempo real con AllMySat

Download on the App Store